Flag for Saint Vincent and Grenadines Weather past 2 weeks in Kingstown, Saint Vincent and Grenadines

Now
82 °F

Scattered clouds.


Feels Like: 91 °F
Forecast: 82 / 85 °F
Wind: 6 mph from East

Location: Arnos Vale

Current Time: Sep 18, 2014 at 8:15:01 AM

Latest Report: Sep 18, 2014 at 7:00 AM


Visibility: N/A

Pressure: 29.95 "Hg

Humidity: 84%

Dew point: 77 °F

Location of KingstownLocation

Historic Weather in Kingstown — Graph

°F

Kingstown temperature yesterday

Maximum temperature yesterday: 88 °F (at 10:00 AM)
Minimum temperature yesterday: 79 °F (at 6:00 AM)
Average temperature yesterday: 84 °F

Past Weeks' High & Low Weather Summary

 TemperatureHumidityPressure
High90 °F (Sep 12, 12:00 PM)94% (Sep 6, 6:00 AM)30.04 "Hg (Sep 6, 6:00 AM)
Low77 °F (Sep 6, 6:00 AM)55% (Sep 12, 1:00 PM)29.86 "Hg (Sep 11, 3:00 PM)
Average84 °F76%29.96 "Hg
* Reported Sep 3 7:00 AM — Sep 18 7:00 AM, Kingstown, Weather by CustomWeather, © 2014

Note: Actual official high and low records may vary slightly from our data, if they occured in-between our weather recording intervals... More about our weather records

Advertising

Kingstown weather history for previous 24 hours

 ConditionsComfort  
Time TempWeatherWind HumidityBarometerVisibility
7:00 AM
Sep 18
82 °FScattered clouds.6 mph84%29.95 "HgN/A
6:00 AM82 °FThunderstorms. Scattered clouds.No wind84%29.95 "HgN/A
10:00 PM
Sep 17
82 °FPassing clouds.7 mph84%29.95 "HgN/A
9:00 PM82 °FPassing clouds.6 mph79%29.95 "HgN/A
8:00 PM84 °FPassing clouds.9 mph74%29.92 "HgN/A
7:00 PM82 °FPassing clouds.No wind79%29.92 "HgN/A
6:00 PM84 °FScattered clouds.9 mph79%29.89 "HgN/A
5:00 PM86 °FPassing clouds.9 mph70%29.89 "HgN/A
4:00 PM86 °FScattered clouds.9 mph70%29.89 "HgN/A
3:00 PM88 °FScattered clouds.12 mph70%29.89 "HgN/A
2:00 PM86 °FScattered clouds.9 mph75%29.92 "HgN/A
1:00 PM84 °FScattered clouds.12 mph84%29.92 "HgN/A
12:00 PM86 °FScattered clouds.9 mph79%29.95 "HgN/A
11:00 AM86 °FPartly sunny.9 mph70%29.98 "HgN/A
10:00 AM88 °FScattered clouds.10 mph66%29.98 "HgN/A
9:00 AM86 °FScattered clouds.10 mph75%29.98 "HgN/A
8:00 AM84 °FPassing clouds.9 mph74%29.95 "HgN/A
Weather by CustomWeather, © 2014

See weather overviewHow to use our weather pages